默认 日期 大小 文件数 浏览量 最新下载 xml
vol.2磁力链接相关资源由用户搜索指令自动获取,结果来源于网络,本站不存储任何资料,亦不承担任何责任,请于24小时内删除,搜索到47315个磁力,显示前4000条数据,用时65ms。
    {"Fap For Fun.url": 51, "Queen's Play VOL.2.mkv": 43082276}
创建时间: 2018-11-05 07:41:11 大小:41.09 MB 文件数量:2 热度:12 最近下载:2025-02-18 23:49:06
    ... ": {"Houseki no Kuni Special Soundtrack 2.cue": 1543, "Houseki no Kuni ... Special Soundtrack 2.log": 7036, "Houseki no Kuni ... Special Soundtrack 2.flac": 138954620}, "LAND_OF_THE_LUSTROUS_2": {"BDMV": {"META ...
创建时间: 2018-11-05 07:42:25 大小:15.02 GB 文件数量:90 热度:22 最近下载:2025-06-02 06:03:01
    {"[日语繁字无修]Naturalナチュラル VOL.2「ひとつに溶けて」": {"mp4": {"[日语繁字无修]Naturalナチュラル VOL.2「ひとつに溶けて」.mp4": 116108881}, "1.jpg": 6873}}
创建时间: 2018-11-05 07:42:41 大小:110.74 MB 文件数量:2 热度:49 最近下载:2025-08-02 09:42:01
    {"Cover.jpg": 352292, "05. Discotron - Watch Out (Original Mix).mp3": 18244030, "04. Martello - Give It To Me (Original Mix).mp3": 17118682, "10. Audio Jacker - Wish List (Original Mix).mp3": 12278714, "09. Discotron - Feel The Need (Original Mix).mp3": ...
创建时间: 2018-11-05 07:42:44 大小:162.9 MB 文件数量:13 热度:10 最近下载:2023-04-09 00:00:31
    {"11. Javah - Waiting (Anthem Edit).mp3": 8276945, "01. Solosizer - Now (Original Mix).mp3": 12231886, "29. Shake 501 - Call Me (Club Mix).mp3": 14786662, "03. Chris Spring - Now (Trance Cut).mp3": 7409684, "02. Sublimity - Angels (Original ...
创建时间: 2018-11-05 07:46:40 大小:470.79 MB 文件数量:36 热度:13 最近下载:2025-05-08 21:41:02
    ... a Party (Girls Gone Rockin' Vol. 2) (CD1).cue": 5385, "Various ... a Party (Girls Gone Rockin' Vol. 2) (CD1).log": 28966}, "CD2": ... a Party (Girls Gone Rockin' Vol. 2) (CD2).cue": 5248, "Various ... a Party (Girls Gone Rockin' Vol. 2) (CD3).log": 29098}, "Artwork": ...
创建时间: 2018-11-05 07:49:14 大小:608.85 MB 文件数量:95 热度:19 最近下载:2025-10-02 10:03:03
    {"Guardians.of.the.Galaxy.Vol.2.2017.1080p.WEB-DL.H264.AC3-EVO.mkv": 4995180865, "Guardians.of.the.Galaxy.Vol.2.2017.1080p.WEB-DL.H264.AC3-EVO.nfo": 758}
创建时间: 2018-11-05 07:59:07 大小:4.65 GB 文件数量:2 热度:8 最近下载:2023-04-09 00:20:04
    {"Kicks": {"BBS2 - Kicks - 001.wav": 106040, "BBS2 - Kicks - 002.wav": 110344, "BBS2 - Kicks - 003.wav": 140248, "BBS2 - Kicks - 004.wav": 91360, "BBS2 - Kicks - 005.wav": 144152, "BBS2 - Kicks - 006.wav": 117960, "BBS2 - Kicks - 007.wav": 80272, "BBS2 - ...
创建时间: 2018-11-05 08:14:41 大小:39.92 MB 文件数量:302 热度:13 最近下载:2025-06-07 16:09:02
    {"BLACKED_ALLIE-AND_480P.mp4": 754879876, "BLACKED_DAKOTA-JAMES_480P.mp4": 516653201, "BLACKED_ABELLA-KEISHA_480P.mp4": 778002236, "BLACKED_Alli Rae- Cadence Lux_480P.mp4": 607260428}
创建时间: 2018-11-05 08:21:08 大小:2.47 GB 文件数量:4 热度:99 最近下载:2025-09-29 09:45:03
    ... , "02. The Dubguru - U Got 2 Know (Carlos Radio Mix).mp3 ...
创建时间: 2018-11-05 08:24:20 大小:106.93 MB 文件数量:28 热度:19 最近下载:2025-08-09 11:45:03
    {"cover.jpg": 163836, "07. Avalon - Out There (Waio Remix).flac": 46220648, "04. Astrix - Tweaky (Avalon Full On Remix).flac": 57578766, "06. Avalon - Distant Futures (Spinal Fusion Remix).flac": 53887971, "02. Ace Ventura & Symbolic - Prime Time (Avalon ...
创建时间: 2018-11-05 08:35:19 大小:413.86 MB 文件数量:9 热度:13 最近下载:2025-04-05 12:56:01
    {"Various Artists - Baby Driver, Vol. 2 The Score for a Score ( ...
创建时间: 2018-11-05 08:35:44 大小:115.73 MB 文件数量:29 热度:9 最近下载:2023-04-09 01:00:25
    {"cover700×700.jpg": 369959, "Folder.auCDtect.txt": 3582, "04. Martin Garrix & Dua Lipa - Scared To Be Lonely (Conro Remix).flac": 27332604, "02. Martin Garrix & Dua Lipa - Scared To Be Lonely (Medasin Remix).flac": 24785308, "05. Martin Garrix & Dua Lipa ...
创建时间: 2018-11-05 08:37:59 大小:155.35 MB 文件数量:8 热度:21 最近下载:2025-03-18 14:09:01
    ... - Stellar Caravan.mp3": 12805335, "09 - Vol. A.D. - Hypnocratic Decay.mp3 ...
创建时间: 2018-11-05 09:03:59 大小:347.03 MB 文件数量:33 热度:17 最近下载:2025-06-10 22:14:02
    {"cover.jpg": 486623, "08 - Cold.mp3": 9111085, "01 - Here to Die.mp3": 7204160, "04 - Battle Born.mp3": 8954364, "09 - Let This Go.mp3": 7860356, "03 - Wrecking Ball.mp3": 7737062, "10 - My Heart Lied.mp3": 8606419, "06 - Matter of Time.mp3": 7844689, "11 ...
创建时间: 2018-11-05 09:11:03 大小:92.9 MB 文件数量:13 热度:10 最近下载:2023-04-09 01:30:06
    {"08 - Cold.mp3": 9820027, "01 - Here to Die.mp3": 7914147, "04 - Battle Born.mp3": 9663306, "09 - Let This Go.mp3": 8570343, "03 - Wrecking Ball.mp3": 8447049, "10 - My Heart Lied.mp3": 9315360, "06 - Matter of Time.mp3": 8553631, "11 - A Day in My Life. ...
创建时间: 2018-11-05 09:13:49 大小:100.56 MB 文件数量:12 热度:20 最近下载:2025-04-04 20:49:01
    ... Del Mar - DAB - The Best Vol.01 - Back.jpg": 110064, "V ... Del Mar - DAB - The Best Vol.01 - Back1.jpg": 70721, "V ... Del Mar - DAB - The Best Vol.01 - Front.jpg": 50063, "V ... Del Mar - DAB - The Best Vol.01 - Front1.jpg": 46933}, "Cafe ...
创建时间: 2018-11-05 09:29:23 大小:276.8 MB 文件数量:38 热度:17 最近下载:2025-08-05 14:44:06
    {"emi.mp4": 805318969, "heidi.mp4": 656768787, "rosie.mp4": 1001947343, "samantha.mp4": 1042218402}
创建时间: 2018-11-05 09:37:57 大小:3.27 GB 文件数量:4 热度:21 最近下载:2025-08-30 13:45:02
    ... Best of Electric Light Orchestra (Vol 2).log": 985, "Electric Light Orchestra ... Best of Electric Light Orchestra (Vol 2).ape": 557401255, "Electric Light Orchestra ... Best of Electric Light Orchestra (Vol 2).cue": 2937}
创建时间: 2018-11-05 09:48:40 大小:540.59 MB 文件数量:7 热度:12 最近下载:2025-01-31 03:48:02
    {"06-t.k.y_-_atmosphere-psi.mp3": 9527406, "02-troya_mood_-_c.l.e.-psi.mp3": 8404008, "03-space_buddha_-_okap-psi.mp3": 9798873, "01-secret_lab_-_some_day-psi.mp3": 10272827, "04-psydrop_-_the_minotaur-psi.mp3": 9571924, "05-guro_nation_-_new_religion-psi. ...
创建时间: 2018-11-05 10:04:55 大小:83.45 MB 文件数量:9 热度:15 最近下载:2025-04-28 15:20:01